Location: Medlow Airstrip Trail, Medlow Bath NSW 2780, Australia
(33.6682°S, 150.3233°E)
Time: 14:53:00
(UTC+11:00)

Explorer 11/Cluster Stage 4 - Pass Details

Date: 25 September 2019
Orbit: 467 x 1259 km, 28.8° (Epoch: 15 October)

Event Time Altitude Azimuth Distance (km) Brightness Sun altitude
Rises 10:49:12 0° 276° (W) 3,114 9.5 54.0°
Reaches altitude 10° 10:51:28 10° 280° (W) 2,307 9.0 54.2°
Maximum altitude 10:56:51 53° 356° (N) 1,099 9.2 54.7°
Drops below altitude 10° 11:03:34 10° 70° (ENE) 2,864 9.9 55.2°
Sets 11:06:39 0° 74° (ENE) 3,933 10.4 55.4°
